Weather History for Cairns, QU

Change the Weather History Date:

Friday, June 21, 2013

  Actual Average Record
Temperature  
Mean Temperature 72 °F -  
Max Temperature 77 °F 78 °F 82 °F (2005)
Min Temperature 68 °F 63 °F 55 °F (2004)
Cooling Degree Days 8    
Growing Degree Days 22 (Base 50)    
Moisture  
Dew Point 59 °F    
Average Humidity 62    
Maximum Humidity 78    
Minimum Humidity 37    
Precipitation  
Precipitation 0.00 in 0.04 in - ()
Sea Level Pressure  
Sea Level Pressure 30.01 in    
Wind  
Wind Speed 9 mph ()    
Max Wind Speed 16 mph    
Max Gust Speed -    
Visibility 7.5 miles    
Events Rain    
Averages and records for this station are not official NWS values.
T = Trace of Precipitation, MM = Missing Value Source: Averaged Metar Reports

Daily Weather History Graph

Daily Weather History Graph

Search for Another Location

Airport:

Trip Planner

Search our weather history database for the weather conditions in past years. The results will help you decide how hot, cold, wet, or windy it might be!

Date:

Astronomy

Jun. 21, 2013 Rise Set
Actual Time 6:45 AM EST 5:52 PM EST
Civil Twilight 6:21 AM EST 6:15 PM EST
Nautical Twilight 5:54 AM EST 6:42 PM EST
Astronomical Twilight 5:27 AM EST 7:09 PM EST
Moon 3:41 PM EST (6/21) 3:57 AM EST (6/21)
Length of Visible Light 11h 54m
Length of Day
11h 07m
Waxing Gibbous, 92% of the Moon is Illuminated
Jun 21
Waxing Gibbous
Jun 23
Full
Jun 30
Last Quarter
Jul 8
New
Jul 16
First Quarter

Hourly Weather History & Observations

Time (EST) Temp. Dew Point Humidity Pressure Visibility Wind Dir Wind Speed Gust Speed Precip Events Conditions
12:00 AM 70 °F 60 °F 64% 30.01 in - South 10.4 mph - -  
12:00 AM 69.8 °F 60.8 °F 73% 30.01 in - South 10.4 mph - N/A   Clear
12:30 AM 69.8 °F 60.8 °F 73% 30.01 in - South 10.4 mph - N/A   Clear
1:00 AM 70 °F 60 °F 64% 30.02 in - South 8.1 mph - -  
1:00 AM 69.8 °F 60.8 °F 73% 30.01 in - South 8.1 mph - N/A   Clear
1:30 AM 69.8 °F 60.8 °F 73% 30.01 in - SSE 9.2 mph - N/A   Clear
2:00 AM 69.8 °F 60.8 °F 73% 29.98 in - South 9.2 mph - N/A   Clear
2:30 AM 69.8 °F 60.8 °F 73% 29.98 in - South 10.4 mph - N/A   Clear
3:00 AM 69 °F 60 °F 67% 29.99 in - South 6.9 mph - -  
3:00 AM 69.8 °F 60.8 °F 73% 29.98 in 6.2 mi South 6.9 mph - N/A   Overcast
3:30 AM 69.8 °F 60.8 °F 73% 29.98 in 6.2 mi South 8.1 mph - N/A   Overcast
4:00 AM 69 °F 61 °F 69% 30.01 in - SSE 9.2 mph - -  
4:00 AM 69.8 °F 60.8 °F 73% 30.01 in 6.2 mi SSE 9.2 mph - N/A   Overcast
4:30 AM 69.8 °F 60.8 °F 73% 30.01 in 6.2 mi South 8.1 mph - N/A   Overcast
5:00 AM 69.8 °F 60.8 °F 73% 29.98 in 6.2 mi South 9.2 mph - N/A Rain Light Rain
5:30 AM 68.0 °F 60.8 °F 78% 30.01 in 6.2 mi South 6.9 mph - N/A Rain Light Rain
6:00 AM 69 °F 61 °F 68% 30.01 in 16 mi South 8.1 mph - - Rain Light Rain
6:00 AM 69.8 °F 60.8 °F 73% 30.01 in 6.2 mi South 8.1 mph - N/A   Mostly Cloudy
6:30 AM 69.8 °F 60.8 °F 73% 30.01 in 6.2 mi South 8.1 mph - N/A   Mostly Cloudy
7:00 AM 68 °F 61 °F 71% 30.04 in - South 8.1 mph - -  
7:00 AM 68.0 °F 60.8 °F 78% 30.04 in 6.2 mi South 8.1 mph - N/A   Mostly Cloudy
7:30 AM 68.0 °F 60.8 °F 78% 30.04 in 6.2 mi South 11.5 mph - N/A   Mostly Cloudy
8:00 AM 69.8 °F 62.6 °F 78% 30.06 in 6.2 mi South 12.7 mph - N/A   Scattered Clouds
8:30 AM 71.6 °F 60.8 °F 69% 30.06 in 6.2 mi South 16.1 mph - N/A   Partly Cloudy
9:00 AM 73 °F 61 °F 58% 30.07 in 19 mi South 11.5 mph - -   Partly Cloudy
9:00 AM 73.4 °F 60.8 °F 65% 30.06 in 6.2 mi South 11.5 mph - N/A   Partly Cloudy
9:30 AM 75.2 °F 60.8 °F 61% 30.06 in 6.2 mi South 12.7 mph - N/A   Scattered Clouds
10:00 AM 75 °F 59 °F 49% 30.06 in - South 12.7 mph - -  
10:00 AM 75.2 °F 59.0 °F 57% 30.04 in 6.2 mi South 12.7 mph - N/A   Scattered Clouds
10:30 AM 75.2 °F 60.8 °F 61% 30.04 in 6.2 mi South 9.2 mph - N/A   Mostly Cloudy
11:00 AM 75.2 °F 59.0 °F 57% 30.04 in 6.2 mi South 10.4 mph - N/A   Mostly Cloudy
11:30 AM 75.2 °F 59.0 °F 57% 30.04 in 6.2 mi SE 12.7 mph - N/A   Mostly Cloudy
12:00 PM 75 °F 59 °F 47% 30.03 in 19 mi SE 11.5 mph - -   Partly Cloudy
12:00 PM 75.2 °F 59.0 °F 57% 30.04 in 6.2 mi SE 11.5 mph - N/A   Mostly Cloudy
12:30 PM 75.2 °F 59.0 °F 57% 30.01 in 6.2 mi ESE 11.5 mph - N/A   Mostly Cloudy
1:00 PM 76 °F 58 °F 44% 30.00 in - ESE 11.5 mph - -  
1:00 PM 75.2 °F 59.0 °F 57% 29.98 in 6.2 mi ESE 11.5 mph - N/A   Mostly Cloudy
1:30 PM 75.2 °F 59.0 °F 57% 29.98 in 6.2 mi ESE 10.4 mph - N/A   Mostly Cloudy
2:00 PM 75.2 °F 59.0 °F 57% 29.98 in 6.2 mi ESE 10.4 mph - N/A   Mostly Cloudy
2:30 PM 77.0 °F 59.0 °F 54% 29.95 in 6.2 mi ESE 10.4 mph - N/A   Mostly Cloudy
3:00 PM 75 °F 54 °F 37% 29.96 in 19 mi ESE 10.4 mph - -   Partly Cloudy
3:00 PM 75.2 °F 53.6 °F 47% 29.95 in 6.2 mi ESE 10.4 mph - N/A   Mostly Cloudy
3:30 PM 75.2 °F 55.4 °F 50% 29.95 in 6.2 mi SE 10.4 mph - N/A   Mostly Cloudy
4:00 PM 74 °F 58 °F 46% 29.96 in - SE 9.2 mph - -  
4:00 PM 73.4 °F 57.2 °F 57% 29.95 in 6.2 mi SE 9.2 mph - N/A   Mostly Cloudy
4:30 PM 73.4 °F 59.0 °F 61% 29.95 in 6.2 mi SE 11.5 mph - N/A   Overcast
5:00 PM 73.4 °F 60.8 °F 65% 29.98 in 6.2 mi SE 10.4 mph - N/A   Mostly Cloudy
5:30 PM 71.6 °F 59.0 °F 64% 29.98 in - SSE 10.4 mph - N/A   Clear
6:00 PM 72 °F 58 °F 51% 29.99 in - SSE 11.5 mph - -  
6:00 PM 71.6 °F 57.2 °F 60% 29.98 in 6.2 mi SSE 11.5 mph - N/A   Mostly Cloudy
6:30 PM 71.6 °F 59.0 °F 64% 30.01 in 6.2 mi South 4.6 mph - N/A   Mostly Cloudy
7:00 PM 71 °F 57 °F 52% 30.02 in - South 5.8 mph - -  
7:00 PM 71.6 °F 57.2 °F 60% 30.01 in 6.2 mi South 5.8 mph - N/A   Mostly Cloudy
7:30 PM 69.8 °F 55.4 °F 60% 30.01 in - South 8.1 mph - N/A   Clear
8:00 PM 69.8 °F 55.4 °F 60% 30.04 in - South 6.9 mph - N/A   Clear
8:30 PM 69.8 °F 55.4 °F 60% 30.01 in - SSE 8.1 mph - N/A   Clear
9:00 PM 70 °F 57 °F 54% 30.04 in - SSE 8.1 mph - -  
9:00 PM 69.8 °F 57.2 °F 64% 30.04 in - SSE 8.1 mph - N/A   Clear
9:30 PM 69.8 °F 55.4 °F 60% 30.04 in - South 8.1 mph - N/A   Clear
10:00 PM 70 °F 55 °F 49% 30.06 in - South 9.2 mph - -  
10:00 PM 69.8 °F 55.4 °F 60% 30.04 in - South 9.2 mph - N/A   Clear
10:30 PM 69.8 °F 55.4 °F 60% 30.06 in - South 10.4 mph - N/A   Clear
11:00 PM 69.8 °F 55.4 °F 60% 30.06 in - South 6.9 mph - N/A   Clear
11:30 PM 69.8 °F 55.4 °F 60% 30.04 in - South 9.2 mph - N/A   Clear